Flushing, NY

12:42 AM EST on February 27, 2017 (GMT -0500)
La Guardia

Weather History for KLGA - May, 2012

Change the Weather History Date:

Sunday, May 13, 2012

  Actual Average Record
Temperature  
Mean Temperature 73 °F 62 °F  
Max Temperature 81 °F 70 °F 89 °F (1956)
Min Temperature 65 °F 53 °F 45 °F (1998)
Degree Days  
Heating Degree Days 0 5  
Month to date heating degree days 61 80  
Since 1 July heating degree days 3594 4594  
Cooling Degree Days 8 1  
Month to date cooling degree days 11 13  
Year to date cooling degree days 30 21  
Growing Degree Days 22 (Base 50)    
Moisture  
Dew Point 47 °F    
Average Humidity 40    
Maximum Humidity 53    
Minimum Humidity 27    
Precipitation  
Precipitation 0.00 in 0.11 in 1.73 in (1975)
Month to date precipitation 1.97 1.47  
Year to date precipitation 10.00 15.37  
Snow  
Snow 0.00 in 0.00 in T in (2000)
Month to date snowfall 0.0 0.0  
Since 1 July snowfall 5.1 26.9  
Snow Depth 0.00 in    
Sea Level Pressure  
Sea Level Pressure 30.13 in    
Wind  
Wind Speed 10 mph (SSW)    
Max Wind Speed 22 mph    
Max Gust Speed 24 mph    
Visibility 10 miles    
Events      
T = Trace of Precipitation, MM = Missing Value Source: NWS Daily Summary

Daily Weather History Graph

Daily Weather History Graph

Search for Another Location

Airport or City:

Trip Planner

Search our weather history database for the weather conditions in past years. The results will help you decide how hot, cold, wet, or windy it might be!

Date:

Astronomy

May. 13, 2012 Rise Set
Actual Time 5:39 AM EDT 8:04 PM EDT
Civil Twilight 5:08 AM EDT 8:35 PM EDT
Nautical Twilight 4:30 AM EDT 9:14 PM EDT
Astronomical Twilight 3:47 AM EDT 9:56 PM EDT
Moon 1:46 AM EDT (5/13) 1:20 PM EDT (5/13)
Length of Visible Light 15h 26m
Length of Day
14h 24m
Last Quarter, 42% of the Moon is Illuminated
May 13
Last Quarter
May 20
New
May 28
First Quarter
Jun 4
Full
Jun 11
Last Quarter

Hourly Weather History & Observations

Time (EDT) Temp. Dew Point Humidity Pressure Visibility Wind Dir Wind Speed Gust Speed Precip Events Conditions
12:51 AM 71.1 °F 43.0 °F 36% 30.17 in 10.0 mi SW 9.2 mph - N/A   Mostly Cloudy
1:51 AM 70.0 °F 43.0 °F 38% 30.16 in 10.0 mi SW 9.2 mph - N/A   Mostly Cloudy
2:51 AM 68.0 °F 43.0 °F 40% 30.15 in 10.0 mi SSW 5.8 mph - N/A   Mostly Cloudy
3:51 AM 66.9 °F 43.0 °F 42% 30.15 in 10.0 mi SW 6.9 mph - N/A   Mostly Cloudy
4:51 AM 66.2 °F 42.8 °F 43% 30.15 in 10.0 mi WSW 5.8 mph - N/A   Mostly Cloudy
5:51 AM 66.0 °F 42.1 °F 42% 30.16 in 10.0 mi SW 6.9 mph - N/A   Mostly Cloudy
6:51 AM 66.0 °F 43.0 °F 43% 30.17 in 10.0 mi SSW 4.6 mph - N/A   Mostly Cloudy
7:51 AM 68.0 °F 42.8 °F 40% 30.18 in 10.0 mi SW 5.8 mph - N/A   Mostly Cloudy
8:51 AM 72.0 °F 43.0 °F 35% 30.17 in 10.0 mi SW 6.9 mph - N/A   Mostly Cloudy
9:51 AM 72.0 °F 43.0 °F 35% 30.17 in 10.0 mi SW 12.7 mph - N/A   Mostly Cloudy
10:51 AM 75.0 °F 44.1 °F 33% 30.17 in 10.0 mi SW 11.5 mph - N/A   Mostly Cloudy
11:51 AM 77.0 °F 44.1 °F 31% 30.16 in 10.0 mi SW 10.4 mph - N/A   Mostly Cloudy
12:51 PM 79.0 °F 41.0 °F 26% 30.14 in 10.0 mi WSW 6.9 mph 18.4 mph N/A   Scattered Clouds
1:51 PM 79.0 °F 46.9 °F 32% 30.12 in 10.0 mi SW 8.1 mph - N/A   Scattered Clouds
2:51 PM 80.1 °F 48.0 °F 32% 30.11 in 10.0 mi South 17.3 mph - N/A   Scattered Clouds
3:51 PM 80.1 °F 46.9 °F 31% 30.09 in 10.0 mi South 15.0 mph - N/A   Scattered Clouds
4:51 PM 80.1 °F 50.0 °F 35% 30.08 in 10.0 mi South 11.5 mph - N/A   Scattered Clouds
5:51 PM 77.0 °F 51.8 °F 41% 30.07 in 10.0 mi South 16.1 mph - N/A   Mostly Cloudy
6:51 PM 73.0 °F 53.1 °F 49% 30.07 in 10.0 mi South 9.2 mph - N/A   Mostly Cloudy
7:51 PM 73.0 °F 55.0 °F 53% 30.08 in 10.0 mi South 8.1 mph - N/A   Mostly Cloudy
8:51 PM 73.0 °F 55.9 °F 55% 30.09 in 10.0 mi SSW 9.2 mph - N/A   Mostly Cloudy
9:51 PM 75.0 °F 54.0 °F 48% 30.10 in 10.0 mi SSW 12.7 mph - N/A   Mostly Cloudy
10:51 PM 73.0 °F 54.0 °F 51% 30.10 in 10.0 mi SSW 11.5 mph - N/A   Overcast
11:51 PM 72.0 °F 54.0 °F 53% 30.10 in 10.0 mi SW 8.1 mph - N/A   Overcast